Estación Meteorológica Peña el Pijo (Robertgarden) [ 07/07/20 10:45:25 CEST ]

Fecha Hora Presion(HPa) Temp (°C) Humedad % Rocio (°C) Viento ( m/s) Direccion Lluvia 1Hora(mm) Lluvia 24H(mm) LLuvia Total(mm)
2020-May-14 01:09:03 996.400 - - - - W     39.88
2020-May-14 02:09:06 995.700 - - - - W     39.88
2020-May-14 03:08:53 995.500 - - - - W     39.88
2020-May-14 04:09:20 995.900 - - - - W     39.88
2020-May-14 05:09:16 996.000 - - - - W     39.88
2020-May-14 06:08:57 995.700 - - - - W     39.88
2020-May-14 07:09:45 995.800 - - - - W     39.88
2020-May-14 08:10:41 996.200 - - - - W     39.88
2020-May-14 09:10:51 996.400 - - - - W     39.88
2020-May-14 10:10:13 997.000 - - - - W     39.88
2020-May-14 11:08:52 997.300 - - - - W     39.88
2020-May-14 12:09:37 997.600 - - - - W     39.88
2020-May-14 13:09:12 997.600 - - - - W     39.88
2020-May-14 14:09:04 997.700 - - - - W     39.88
2020-May-14 15:08:56 997.900 - - - - W     39.88
2020-May-14 16:09:10 998.000 - - - - W     39.88
2020-May-14 17:09:22 997.500 - - - - W     39.88
2020-May-14 18:08:51 998.100 - - - - W     39.88
2020-May-14 19:09:43 998.300 - - - - W     39.88
2020-May-14 20:08:54 999.000 - - - - W     39.88
2020-May-14 21:09:34 999.900 - - - - W     39.88
2020-May-14 22:09:20 1000.800 - - - - W     39.88
2020-May-14 23:09:09 1001.600 - - - - W     39.88

Temperatura Máxima:    Temperatura Mínima:
Presión Máxima:1001.600 Hpa    Presión Mínima:995.500 Hpa


Volver